When you browse on this site, cookies collect data to enhance your experience and personalize the content and advertising you see.
Visit our Privacy Policy to learn more. By continuing to use the site, you agree to this use of cookies and data.
  • In Germany
  • List of Countries
  • For 7 days
  • Water Temperature
  • Weather Map
  • Weather Widgets
  • user-avatar
    Login

    Hourly Weather Saidpur

    Today, 19 February, Wednesday

    Time Temperature Precipitation Wind Pressure Humidity
    00:00 +20°C° 0 mm 2 mps 759 mmHg 42%
    01:00 +20°C° 0 mm 2 mps 758 mmHg 43%
    02:00 +19°C° 0 mm 2 mps 758 mmHg 43%
    03:00 +19°C° 0 mm 1 mps 758 mmHg 43%
    04:00 +19°C° 0 mm 1 mps 758 mmHg 44%
    05:00 +18°C° 0 mm 1 mps 758 mmHg 46%
    06:00 +18°C° 0 mm 1 mps 758 mmHg 47%
    07:00 +20°C° 0 mm 1 mps 758 mmHg 43%
    08:00 +22°C° 0 mm 1 mps 759 mmHg 40%
    09:00 +23°C° 0 mm 1 mps 760 mmHg 36%
    10:00 +25°C° 0 mm 1 mps 760 mmHg 31%
    11:00 +27°C° 0 mm 2 mps 759 mmHg 26%
    12:00 +29°C° 0 mm 2 mps 759 mmHg 22%
    13:00 +30°C° 0 mm 3 mps 758 mmHg 20%
    14:00 +30°C° 0 mm 3 mps 757 mmHg 19%
    15:00 +31°C° 0 mm 3 mps 757 mmHg 17%
    16:00 +30°C° 0 mm 3 mps 756 mmHg 20%
    17:00 +28°C° 0 mm 2 mps 756 mmHg 22%
    18:00 +27°C° 0 mm 2 mps 756 mmHg 24%
    19:00 +26°C° 0 mm 2 mps 757 mmHg 26%
    20:00 +25°C° 0 mm 2 mps 757 mmHg 28%
    21:00 +24°C° 0 mm 2 mps 758 mmHg 30%
    22:00 +23°C° 0 mm 1 mps 758 mmHg 32%
    23:00 +22°C° 0 mm 1 mps 758 mmHg 34%

    Tomorrow, 20 February, Thursday

    Time Temperature Precipitation Wind Pressure Humidity
    00:00 +19°C° 0 mm 0 mps 758 mmHg 36%
    01:00 +21°C° 0 mm 1 mps 758 mmHg 38%
    02:00 +21°C° 0 mm 1 mps 758 mmHg 39%
    03:00 +21°C° 0 mm 1 mps 757 mmHg 40%
    04:00 +20°C° 0 mm 1 mps 757 mmHg 41%
    05:00 +20°C° 0 mm 1 mps 757 mmHg 41%
    06:00 +19°C° 0 mm 1 mps 758 mmHg 42%
    07:00 +21°C° 0 mm 1 mps 758 mmHg 37%
    08:00 +23°C° 0 mm 1 mps 759 mmHg 33%
    09:00 +25°C° 0 mm 1 mps 760 mmHg 29%
    10:00 +27°C° 0 mm 2 mps 760 mmHg 25%
    11:00 +29°C° 0 mm 2 mps 760 mmHg 22%
    12:00 +31°C° 0 mm 3 mps 759 mmHg 18%
    13:00 +31°C° 0 mm 2 mps 759 mmHg 17%
    14:00 +32°C° 0 mm 2 mps 758 mmHg 17%
    15:00 +32°C° 0 mm 2 mps 757 mmHg 17%
    16:00 +31°C° 0 mm 1 mps 757 mmHg 18%
    17:00 +29°C° 0 mm 1 mps 757 mmHg 20%
    18:00 +28°C° 0 mm 1 mps 757 mmHg 22%
    19:00 +27°C° 0 mm 1 mps 757 mmHg 23%
    20:00 +25°C° 0 mm 2 mps 758 mmHg 25%
    21:00 +24°C° 0 mm 2 mps 758 mmHg 26%
    22:00 +24°C° 0 mm 2 mps 758 mmHg 27%
    23:00 +23°C° 0 mm 2 mps 758 mmHg 29%

    Day after tomorrow, 21 February, Friday

    Time Temperature Precipitation Wind Pressure Humidity
    00:00 +21°C° 0 mm 2 mps 758 mmHg 30%
    01:00 +21°C° 0 mm 2 mps 758 mmHg 31%
    02:00 +21°C° 0 mm 2 mps 758 mmHg 32%
    03:00 +20°C° 0 mm 2 mps 758 mmHg 32%
    04:00 +20°C° 0 mm 2 mps 758 mmHg 33%
    05:00 +19°C° 0 mm 2 mps 759 mmHg 35%
    06:00 +19°C° 0 mm 2 mps 759 mmHg 36%
    07:00 +20°C° 0 mm 3 mps 760 mmHg 35%
    08:00 +22°C° 0 mm 3 mps 761 mmHg 33%
    09:00 +25°C° 0 mm 4 mps 762 mmHg 32%
    10:00 +27°C° 0 mm 4 mps 761 mmHg 28%
    11:00 +29°C° 0 mm 3 mps 761 mmHg 25%
    12:00 +31°C° 0 mm 3 mps 761 mmHg 21%
    19:00 +28°C° 0 mm 1 mps 759 mmHg 24%
    20:00 +27°C° 0 mm 2 mps 760 mmHg 25%
    21:00 +26°C° 0 mm 2 mps 760 mmHg 26%
    22:00 +25°C° 0 mm 2 mps 760 mmHg 29%
    23:00 +25°C° 0 mm 2 mps 760 mmHg 31%

    22 February, Saturday

    Time Temperature Precipitation Wind Pressure Humidity
    00:00 +24°C° 0 mm 2 mps 760 mmHg 34%
    01:00 +23°C° 0 mm 2 mps 760 mmHg 37%
    02:00 +23°C° 0 mm 2 mps 760 mmHg 39%
    03:00 +22°C° 0 mm 1 mps 760 mmHg 42%
    04:00 +22°C° 0 mm 1 mps 760 mmHg 43%
    05:00 +22°C° 0 mm 1 mps 760 mmHg 44%
    06:00 +22°C° 0 mm 1 mps 760 mmHg 45%
    07:00 +23°C° 0 mm 1 mps 760 mmHg 43%
    08:00 +25°C° 0 mm 2 mps 761 mmHg 41%
    09:00 +26°C° 0 mm 2 mps 762 mmHg 40%
    10:00 +27°C° 0 mm 2 mps 762 mmHg 36%
    11:00 +29°C° 0 mm 2 mps 762 mmHg 33%
    12:00 +30°C° 0 mm 2 mps 761 mmHg 30%
    13:00 +31°C° 0 mm 1 mps 761 mmHg 29%
    14:00 +31°C° 0 mm 1 mps 760 mmHg 28%
    15:00 +31°C° 0 mm 1 mps 759 mmHg 27%
    16:00 +30°C° 0 mm 1 mps 759 mmHg 30%
    17:00 +28°C° 0 mm 1 mps 759 mmHg 32%
    18:00 +27°C° 0 mm 1 mps 759 mmHg 35%
    19:00 +27°C° 0 mm 1 mps 759 mmHg 36%
    20:00 +24°C° 0 mm 0 mps 759 mmHg 37%
    21:00 +23°C° 0 mm 0 mps 760 mmHg 39%
    22:00 +23°C° 0 mm 0 mps 760 mmHg 39%
    23:00 +25°C° 0 mm 1 mps 760 mmHg 39%

    23 February, Sunday

    Time Temperature Precipitation Wind Pressure Humidity
    00:00 +24°C° 0 mm 1 mps 760 mmHg 40%
    01:00 +24°C° 0 mm 1 mps 759 mmHg 41%
    02:00 +24°C° 0 mm 1 mps 759 mmHg 41%
    03:00 +23°C° 0 mm 1 mps 759 mmHg 42%
    04:00 +23°C° 0 mm 1 mps 759 mmHg 43%
    05:00 +23°C° 0 mm 1 mps 759 mmHg 44%
    06:00 +23°C° 0 mm 1 mps 759 mmHg 44%
    07:00 +24°C° 0 mm 1 mps 759 mmHg 42%
    08:00 +26°C° 0 mm 2 mps 760 mmHg 39%
    09:00 +27°C° 0 mm 2 mps 761 mmHg 36%
    10:00 +29°C° 0 mm 3 mps 760 mmHg 32%
    11:00 +31°C° 0 mm 3 mps 760 mmHg 29%
    12:00 +34°C° 0 mm 3 mps 760 mmHg 25%
    13:00 +34°C° 0 mm 2 mps 759 mmHg 24%
    14:00 +34°C° 0 mm 1 mps 758 mmHg 23%
    15:00 +35°C° 0 mm 1 mps 757 mmHg 22%
    16:00 +33°C° 0 mm 1 mps 757 mmHg 24%
    17:00 +32°C° 0 mm 1 mps 756 mmHg 26%
    18:00 +30°C° 0 mm 2 mps 756 mmHg 28%
    19:00 +29°C° 0 mm 1 mps 756 mmHg 30%
    20:00 +28°C° 0 mm 1 mps 757 mmHg 32%
    21:00 +27°C° 0 mm 1 mps 757 mmHg 33%
    22:00 +27°C° 0 mm 1 mps 757 mmHg 35%
    23:00 +26°C° 0 mm 2 mps 757 mmHg 38%

    24 February, Monday

    Time Temperature Precipitation Wind Pressure Humidity
    00:00 +25°C° 0 mm 3 mps 757 mmHg 40%
    01:00 +24°C° 0.1 mm 2 mps 757 mmHg 44%
    02:00 +24°C° 0.1 mm 2 mps 757 mmHg 48%
    03:00 +23°C° 0.1 mm 2 mps 756 mmHg 52%
    04:00 +21°C° 0.1 mm 2 mps 756 mmHg 54%
    05:00 +21°C° 0.1 mm 2 mps 756 mmHg 56%
    06:00 +21°C° 0.1 mm 3 mps 757 mmHg 58%
    07:00 +22°C° 0.1 mm 3 mps 757 mmHg 53%
    08:00 +25°C° 0.1 mm 4 mps 758 mmHg 49%
    09:00 +26°C° 0.1 mm 4 mps 758 mmHg 45%
    10:00 +28°C° 0 mm 4 mps 758 mmHg 40%
    11:00 +30°C° 0 mm 4 mps 758 mmHg 34%
    12:00 +34°C° 0 mm 3 mps 757 mmHg 29%
    13:00 +34°C° 0 mm 3 mps 756 mmHg 27%
    14:00 +35°C° 0 mm 2 mps 755 mmHg 25%
    15:00 +36°C° 0 mm 2 mps 754 mmHg 23%
    16:00 +34°C° 0 mm 2 mps 754 mmHg 24%
    17:00 +32°C° 0 mm 1 mps 754 mmHg 26%
    18:00 +31°C° 0 mm 1 mps 754 mmHg 28%
    19:00 +30°C° 0 mm 2 mps 755 mmHg 31%
    20:00 +29°C° 0 mm 3 mps 755 mmHg 34%
    21:00 +28°C° 0 mm 4 mps 756 mmHg 37%
    22:00 +27°C° 0 mm 4 mps 756 mmHg 38%
    23:00 +27°C° 0 mm 4 mps 756 mmHg 40%
    Show more